Regional Weather Roundup
Issued by NWS Little Rock, AR

Home | Current Version | Previous Version | Text Only | Print | Product List | Glossary On
Versions: 1 2 3 4 5 6 7 8 9 10 11 12 13 14 15 16 17 18 19 20 21 22 23 24 25 26 27 28 29 30 31 32 33 34 35 36 37 38 39 40 41 42 43 44 45 46 47 48 49 50
000
ASUS44 KLZK 302105
RWRLZK

WEATHER ROUNDUP FOR ARKANSAS
NATIONAL WEATHER SERVICE LITTLE ROCK AR
400 PM CDT SAT APR 30 2016

NOTE: "FAIR" INDICATES FEW OR NO CLOUDS BELOW 12,000 FEET WITH NO
SIGNIFICANT WEATHER AND/OR OBSTRUCTIONS TO VISIBILITY.

ARZ001-003-010-029-302200-
NORTHWEST ARKANSAS

CITY           SKY/WX    TMP DP  RH WIND       PRES   REMARKS
FAYETTEVILLE   CLOUDY    68  63  84 W9        29.77S
FORT SMITH     MOSUNNY   72  61  68 W15       29.74S
HARRISON       MOSUNNY   77  62  59 NW9G17    29.74R
BENTONVILLE    CLOUDY    66  57  72 NW8       29.78F
ROGERS         CLOUDY    67  61  81 W8        29.78S
SILOAM SPGS    CLOUDY    66  55  68 W7        29.78F
HIGHFILL       CLOUDY    67  62  84 W8        29.77F
SPRINGDALE     PTSUNNY   70  63  78 W12       29.79S
$$

ARZ004-005-016-302200-
NORTH CENTRAL ARKANSAS

CITY           SKY/WX    TMP DP  RH WIND       PRES   REMARKS
BATESVILLE     MOSUNNY   79  63  57 S9        29.75R
FLIPPIN        PTSUNNY  N/A N/A N/A S6        29.69S
MTN HOME       MOSUNNY   77  62  59 VRB6      29.71F
$$

ARZ040-041-302200-
WEST CENTRAL ARKANSAS

CITY           SKY/WX    TMP DP  RH WIND       PRES   REMARKS
MENA           SUNNY     81  63  54 SW7       29.75R
MOUNT IDA      MOSUNNY   79  65  62 S6        29.72S
$$

ARZ009-017-025-026-028-302200-
NORTHEAST ARKANSAS

CITY           SKY/WX    TMP DP  RH WIND       PRES   REMARKS
CORNING          N/A     75  64  69 S8        29.76S
JONESBORO      SUNNY     75  62  64 S14       29.76S
NEWPORT        MOSUNNY   78  62  57 S15       29.77R
WALNUT RIDGE   SUNNY     75  61  60 S10       29.76R
BLYTHEVILLE    CLOUDY    75  62  64 S6        29.79R
$$

ARZ022-023-033-042-044-302200-
CENTRAL ARKANSAS

CITY           SKY/WX    TMP DP  RH WIND       PRES   REMARKS
LITTLE ROCK    MOSUNNY   80  63  55 SW8       29.74S
N LITTLE ROCK    N/A     78  63  58 SW7       29.74R
JACKSONVILLE   SUNNY     79  65  60 SW9       29.74S
SEARCY         SUNNY     79  64  60 S13       29.77R
HOT SPRINGS    PTSUNNY   78  62  57 SW6       29.75S
RUSSELLVILLE   SUNNY     78  64  61 CALM      29.72S
$$

ARZ036-302200-
EAST ARKANSAS

CITY           SKY/WX    TMP DP  RH WIND       PRES   REMARKS
WEST MEMPHIS   CLOUDY    75  63  66 SW9       29.78R
$$

ARZ050-053-066-070-073-302200-
SOUTHWEST ARKANSAS

CITY           SKY/WX    TMP DP  RH WIND       PRES   REMARKS
ARKADELPHIA    MOCLDY    80  70  71 SW5       29.75S
CAMDEN         PTSUNNY   82  63  51 S9G17     29.72S
TEXARKANA      PTSUNNY   80  68  66 E5        29.72F
EL DORADO      LGT RAIN  81  67  62 S14       29.73S
DE QUEEN       PTSUNNY   80  66  62 SW6       29.71F
$$

ARZ056-057-069-302200-
SOUTHEAST ARKANSAS

CITY           SKY/WX    TMP DP  RH WIND       PRES   REMARKS
PINE BLUFF     MOSUNNY   80  62  54 S15G23    29.74F
STUTTGART      SUNNY     79  63  57 SW8       29.76F
MONTICELLO     MOSUNNY   80  65  59 S9G20     29.74S

$$





USA.gov is the U.S. government's official web portal to all federal, state and local government web resources and services.